星链-5153 (STARLINK-5153 )

导读

STARLINK-5153是美国太空探索技术公司(SpaceX)“星链”星座旗下卫星,于2022年10月20日发射升空,属于星链互联网星座的组成部分,承担全球范围低轨卫星互联网通信服务相关任务,依托星链的组网架构,为偏远地区通信、高速互联网接入等场景提供服务支撑。

基本信息
目录编号:
54088
目录名称:
STARLINK-5153
国际标识:
2022-136AP
轨道中心:
EARTH
卫星名称:
星链-5153
卫星全名:
星链-5153 (STARLINK-5153 )
卫星状态:
在轨 (已飞行1423 天)
发射日期:
2022-10-20 UTC
国别 :
美国 (US)
星等 :
--
该卫星已列入 空间交会检测服务 Space Conjunction Data Service (SCDS) ,当前飞行风险评估等级: 无高风险
轨道信息
数据来源 国际轨道数据
星历时间: 2026-09-12T16:00:02+0800
4小时前
查看轨道信息
半长轴: 6872.611km
偏心率: 0.0002292
轨道倾角: 53.162°
近地点辐角 72.738°
升交点赤经 215.175°
平近点角 64.594°
近地点: 492.898km
远地点: 496.05km
周期: 94.502分钟
每日圈数: 15.237725
详细信息
固有亮度:
5
最大亮度:
2.5
卫星平台:
Starlink v1.5
覆盖范围:
全球
运营商:
太空探索技术公司
运营商所在国:
美国
制造商(研发单位):
太空探索技术公司
制造商所在国:
美国
使用方式:
暂无
卫星简介
星链(Starlink)计划是由太空探索技术公司(SpaceX)提出的一个巨型低轨卫星互联网星座项目,计划在2019年至2024年间在太空搭建由约1.2万颗卫星组成的“星链”网络,其中1584颗将部署在地球上空550千米处的近地轨道,并从2020年开始工作。该卫星仍在工作。
2D轨道图
3D轨道图
轨道高度分析图
轨道倾角分析图
轨道综合分析图
查看轨道综合分析图
交会数据列表
事件ID 空间交会对象 最接近时刻(TCA) 交会距离 交会风险概率(CRP) 交会风险指数(CRI) 操作
CDM_260913-192405-408805-461421
2026-09-13T
19:24:09+0000
2.405 km
极远距离
1.852662E-6 低风险 0.4
CDM_260913-152905-408805-772721
2026-09-13T
15:29:22+0000
2.493 km
极远距离
1.163267E-6 低风险 0.36
CDM_260913-085803-876505-408821
RE (38765)
2026-09-13T
08:58:01+0000
2.814 km
极远距离
8.003045E-7 极低风险 0.33
与全量物体交会距离演化趋势
与全量物体交会风险概率演化趋势